Location: Dappach
(48.9767°N, 9.6998°E)
Time: 05:32:29
(UTC+00:00)

COSMOS 2428 - Pass Details

Date: 17 August 2024
Orbit: 842 x 857 km, 70.9° (Epoch: 16 September)

Event Time Altitude Azimuth Distance (km) Brightness Sun altitude
Exits shadow 00:46:29 57° 253° (WSW) 996 2.8 -25.2°
Maximum altitude 00:47:25 67° 302° (WNW) 922 2.8 -25.1°
Drops below altitude 10° 00:53:07 10° 25° (NNE) 2,492 6.2 -24.8°
Sets 00:55:37 0° 28° (NNE) 3,434 7.3 -24.6°
